Preview of NWS' New Version of Forecast
This preview is not operational and should not be used for support decisions.

Regional Weather Roundup (RWR)

Issued by National Weather Service (NWS)

                            
000
ASUS43 KBIS 182010
RWRND 

NORTH DAKOTA REGIONAL WEATHER ROUNDUP
NATIONAL WEATHER SERVICE BISMARCK ND
200 PM CST FRI JAN 18 2019

NOTE: "FAIR" INDICATES FEW OR NO CLOUDS BELOW 12,000 FEET WITH NO
SIGNIFICANT WEATHER AND/OR OBSTRUCTIONS TO VISIBILITY.


NDZ001>003-009>011-017-182100-
NORTHWEST NORTH DAKOTA
  
CITY           SKY/WX    TMP DP  RH WIND       PRES   REMARKS
WILLISTON      LGT SNOW   5  -3  69 E7        30.28S WCI  -7          
MINOT          CLOUDY    -1 -11  62 E8        30.34S WCI -15          
$$
 
NDZ018>021-031>035-040>046-182100-
SOUTHWEST NORTH DAKOTA
  
CITY           SKY/WX    TMP DP  RH WIND       PRES   REMARKS
BISMARCK       LGT SNOW   2  -4  76 E10       30.31F WCI -14          
DICKINSON      LGT SNOW   6   0  76 E12       30.16S WCI  -9          
GARRISON         N/A     -1  -8  72 E7        30.30R WCI -14          
HETTINGER ARPT LGT SNOW   7   2  80 E9        30.16S WCI  -7          
$$
 
NDZ004>008-012>016-024-026-027-054-182100-
NORTHEAST NORTH DAKOTA
  
CITY           SKY/WX    TMP DP  RH WIND       PRES   REMARKS
GRAND FORKS    CLOUDY    -8 -17  64 N10       30.47S WCI -26          
GRND FRKS AFB  PTSUNNY   -6 -16  61 N8        30.46S WCI -22          
DEVILS LAKE    MOSUNNY  -12 -18  74 N6        30.40F WCI -26          
$$
 
NDZ022-023-025-028>030-036>039-047>053-182100-
SOUTHEAST NORTH DAKOTA
  
CITY           SKY/WX    TMP DP  RH WIND       PRES   REMARKS
FARGO          PTSUNNY   -4 -11  72 N15       30.39F WCI -25          
JAMESTOWN      CLOUDY     1 -10  60 NE9       30.33S WCI -14          
$$